TFL7BA EHEH-GVAC

Flight info

Callsign TFL7BA
Flight time N/A
Altitude 34000
Route WOODY5K WOODY N872 MEDIL DCT KOVIN DCT NIDUV DCT KIHVI UN872 ERIGA DCT FUJTI DCT PEPET DCT BAKUP DCT BATAX DCT BABEX DCT VATZI DCT BAROK UN873 SAMAR DCT YUSME DCT LIMAL N873 IPERA DCT DIMKI DIMKI1S
Aircraft B38M/M-SDE1FGHILORVWXY/HB1

Departure

Time N/A
Airport Eindhoven Airport (EHEH)

Arrival

Time 2026-04-25 13:32
Airport Amílcar Cabral International Airport (GVAC)
Time Latitude Longitude Altitude Speed Heading
2026-04-25 13:14 17.21783 -22.61928 10890 ft 296 kts 211°
2026-04-25 13:15 17.19966 -22.62931 10587 ft 294 kts 211°
2026-04-25 13:15 17.18168 -22.63921 10279 ft 291 kts 211°
2026-04-25 13:15 17.16392 -22.64901 10104 ft 284 kts 211°
2026-04-25 13:15 17.14664 -22.65854 9913 ft 278 kts 211°
2026-04-25 13:16 17.12977 -22.66783 9595 ft 277 kts 211°
2026-04-25 13:16 17.11351 -22.67679 9293 ft 275 kts 212°
2026-04-25 13:20 17.11043 -22.67849 9239 ft 275 kts 212°
2026-04-25 13:20 17.08793 -22.69089 8843 ft 272 kts 212°
2026-04-25 13:20 17.07148 -22.69994 8553 ft 269 kts 212°
2026-04-25 13:20 17.05494 -22.70905 8272 ft 267 kts 212°
2026-04-25 13:21 17.03856 -22.71806 7977 ft 265 kts 212°
2026-04-25 13:21 17.02234 -22.72700 7710 ft 263 kts 212°
2026-04-25 13:21 17.00615 -22.73578 7430 ft 262 kts 208°
2026-04-25 13:21 16.98830 -22.73976 7127 ft 268 kts 185°
2026-04-25 13:22 16.96970 -22.73896 6869 ft 267 kts 181°
2026-04-25 13:22 16.95110 -22.73767 6594 ft 270 kts 180°
2026-04-25 13:22 16.93215 -22.73638 6364 ft 276 kts 180°
2026-04-25 13:23 16.89380 -22.73407 5845 ft 278 kts 181°
2026-04-25 13:23 16.87465 -22.73424 5593 ft 274 kts 189°
2026-04-25 13:23 16.85575 -22.73673 5366 ft 273 kts 191°
2026-04-25 13:23 16.83693 -22.73957 5134 ft 273 kts 191°
2026-04-25 13:24 16.81824 -22.74272 4885 ft 271 kts 197°
2026-04-25 13:24 16.80018 -22.74812 4653 ft 269 kts 201°
2026-04-25 13:24 16.78236 -22.75427 4385 ft 271 kts 201°
2026-04-25 13:24 16.76446 -22.76039 4172 ft 269 kts 200°
2026-04-25 13:25 16.74701 -22.76666 4058 ft 260 kts 201°
2026-04-25 13:25 16.73023 -22.77286 3965 ft 250 kts 201°
2026-04-25 13:25 16.71414 -22.77891 3862 ft 240 kts 202°
2026-04-25 13:25 16.69868 -22.78466 3735 ft 233 kts 201°
2026-04-25 13:26 16.68351 -22.79043 3686 ft 232 kts 201°
2026-04-25 13:26 16.66862 -22.79610 3633 ft 225 kts 201°
2026-04-25 13:26 16.65401 -22.80170 3554 ft 221 kts 202°
2026-04-25 13:26 16.63961 -22.80723 3458 ft 221 kts 201°
2026-04-25 13:27 16.62665 -22.81518 3378 ft 212 kts 234°
2026-04-25 13:27 16.62108 -22.82885 3328 ft 205 kts 266°
2026-04-25 13:27 16.62084 -22.84360 3367 ft 205 kts 278°
2026-04-25 13:27 16.62108 -22.85858 3341 ft 207 kts 275°
2026-04-25 13:28 16.62107 -22.87361 3174 ft 206 kts 274°
2026-04-25 13:28 16.62102 -22.87861 3096 ft 204 kts 273°
2026-04-25 13:28 16.62061 -22.90292 2644 ft 199 kts 274°
2026-04-25 13:28 16.62030 -22.91727 2318 ft 201 kts 272°
2026-04-25 13:29 16.62218 -22.93120 2071 ft 189 kts 300°
2026-04-25 13:29 16.63035 -22.94074 1873 ft 163 kts 336°
2026-04-25 13:29 16.64043 -22.94501 1767 ft 156 kts 347°
2026-04-25 13:30 16.66070 -22.94778 1434 ft 138 kts
2026-04-25 13:30 16.67026 -22.94795 1252 ft 136 kts
2026-04-25 13:30 16.67960 -22.94806 1058 ft 134 kts
2026-04-25 13:31 16.69869 -22.94917 720 ft 139 kts
2026-04-25 13:31 16.70826 -22.94913 529 ft 137 kts
2026-04-25 13:31 16.71766 -22.94894 312 ft 132 kts
2026-04-25 13:31 16.72673 -22.94892 209 ft 129 kts
2026-04-25 13:32 16.73456 -22.94892 182 ft 90 kts
2026-04-25 13:32 16.73930 -22.94895 182 ft 55 kts 359°
2026-04-25 13:32 16.74150 -22.94898 180 ft 23 kts 359°
2026-04-25 13:32 16.74235 -22.94853 180 ft 18 kts 54°
2026-04-25 13:33 16.74304 -22.94741 182 ft 12 kts 67°
2026-04-25 13:33 16.74283 -22.94702 183 ft 4 kts 184°
2026-04-25 13:33 16.74237 -22.94700 183 ft 11 kts 177°
2026-04-25 13:33 16.74210 -22.94699 183 ft 12 kts 177°
2026-04-25 13:34 16.74051 -22.94700 183 ft 15 kts 182°
2026-04-25 13:34 16.73941 -22.94699 182 ft 16 kts 179°
2026-04-25 13:34 16.73823 -22.94698 183 ft 18 kts 180°
2026-04-25 13:34 16.73735 -22.94698 183 ft 13 kts 179°
2026-04-25 13:35 16.73643 -22.94696 183 ft 10 kts 167°
2026-04-25 13:35 16.73616 -22.94647 183 ft 10 kts 105°
2026-04-25 13:35 16.73592 -22.94609 183 ft 6 kts 135°
2026-04-25 13:35 16.73569 -22.94571 183 ft 5 kts 117°
2026-04-25 13:36 16.73562 -22.94529 183 ft 6 kts 90°
2026-04-25 13:36 16.73561 -22.94512 183 ft 1 kts 91°
2026-04-25 13:36 16.73561 -22.94505 183 ft 0 kts 91°
2026-04-25 13:36 16.73561 -22.94501 183 ft 2 kts 91°
2026-04-25 13:37 16.73561 -22.94496 183 ft 0 kts 91°